Weather in Vyborg

Russia / Saint-Petersburg and Leningrad Oblast     60°42′36″N   28°44′57″E
temp.,
°C
wind,
m/s
gust,
m/s
humid.,
%
clouds,
%
prec.,
mm/h
press.,
hPa
HPBL,
m
12 may, wed
wed1200:00+13sse310840 0.0 1021177
03:00+11s29890 0.0 1021152
06:00+12s28825 0.0 1021167
09:00+17ssw37574 0.0 1021380
12:00+21ssw47430 0.0 1021832
15:00+23ssw47440 0.0 1021988
18:00+22ssw37470 0.0 1019831
21:00+16s11702 0.0 101911
13 may, thu
thu1300:00+15se22800 0.0 101919
03:00+13ese22820 0.0 101812
06:00+14ene27800 0.0 1017172
09:00+20ese49530 0.0 1016842
12:00+21sse575013 0.0 10151641
15:00+22sse463781 0.0 10142072
18:00+21s45365 0.0 10131585
21:00+15sse11565 0.0 101311
14 may, fri
fri1400:00+12nne22765 0.0 101124
03:00+12nne2682100 0.0 1009129
06:00+12n1197100 2.9 100764
09:00+12se3698100 14.8 1007383
12:00+9s41197100 0.6 1008460
15:00+10s3996100 0.9 1009472
18:00+12sse1490100 0.9 1008235
21:00+11sse2492100 0.9 1007105
15 may, sat
sat1500:00+11s279420 0.1 1007183
03:00+9s249797 0.1 100774
06:00+9s139719 0.0 100791
09:00+14ssw238276 0.0 1007382
12:00+15ssw127693 0.0 1007401
15:00+19sw22585 0.0 1006833
18:00+19ssw22576 0.0 1006750
21:00+14wnw118412 0.1 100614
16 may, sun
sun1600:00+12ene24954 0.0 100672
03:00+11ne239646 0.0 100760
06:00+11nne259154 0.0 1007147
09:00+16ne2367100 0.0 1008472
12:00+16n3363100 0.0 1009554
15:00+18nnw235298 0.0 10101030
18:00+18nw125179 0.0 1010720
21:00+13wnw007997 0.0 101217